Weather in Liberec

Czech Republic     50°46′12″N   15°03′37″E
temp.,
°C
wind,
m/s
gust,
m/s
humid.,
%
clouds,
%
prec.,
mm/h
press.,
hPa
HPBL,
m
13 june, sun
sun1323:00+12nnw512872 0.1 1018917
02:00+9nw4128958 0.2 1020576
05:00+9nw4109899 0.4 1021750
08:00+9nw598854 0.8 1022949
11:00+11nw596594 0.1 10241423
14:00+12nw5868100 0.2 10251294
17:00+12nnw596699 0.1 10251377
20:00+11nnw38753 0.2 10251076
14 june, mon
mon1423:00+7n11945 0.0 102611
02:00+7se11955 0.0 102610
05:00+6n11960 0.0 102511
08:00+13nnw24730 0.0 1025489
11:00+17nnw33520 0.0 10241059
14:00+20nnw32440 0.0 10221288
17:00+20nnw33480 0.0 10211034
20:00+17nnw11725 0.0 102011
15 june, tue
tue1523:00+12ese228862 0.0 102117
02:00+11se2293100 0.0 102123
05:00+11se2291100 0.0 102127
08:00+16s2269100 0.0 1020250
11:00+21w1253100 0.0 1020897
14:00+22nnw2350100 0.0 10191369
17:00+22n3354100 0.0 10181202
20:00+18n367963 0.0 1019293
16 june, wed
wed1623:00+14nne22965 0.0 102022
02:00+13nne119684 0.0 102014
05:00+13ne119587 0.0 102010
08:00+18wsw0176100 0.0 1019316
11:00+23sw115475 0.0 10191386
14:00+24ne115398 0.2 10181416
17:00+25e115233 0.2 10171533
20:00+20se247819 0.4 1018121
17 june, thu
thu1723:00+16ese238920 0.0 101955
02:00+15ese22894 0.0 101839
05:00+14ese12920 0.0 101815
08:00+21sse12670 0.0 1018358
11:00+25sse23494 0.0 10171380
14:00+27sse33410 0.0 10161811
17:00+26sse23440 0.0 10151711
20:00+22se23720 0.0 1015102